Powrót do katalogu

FENGYUN 1C DEB

AktywnySSO
NORAD 30696·DEBRIS·🇨🇳 China

Wystrzelony May 10, 1999 z Taiyuan Satellite Launch Center

Loading…

Następne Przeloty (najbliższe 24 godziny)

TLE

ŚwieżeSource: Space-Track

Epoka: Sep 14, 2026, 15:37 UTC

1 30696U 99025ARE 26257.65076402  .00001547  00000-0  42591-3 0  9992
2 30696  98.3603 308.0170 0086778  10.0321 144.7911 14.46139890 22777

Śledź FENGYUN 1C DEB w czasie rzeczywistym z AllMySat

Download on the App Store